Tracking 23731 objects as of 26-Sep-2021
HD Live streaming from Space Station
objects crossing your sky now

USA 7

Track USA 7 now!
USA 7 is classified as:


NORAD ID: 15453
Int'l Code: 1984-129A
Perigee: 36,184.5 km
Apogee: 36,204.0 km
Inclination: 14.2 °
Period: 1,456.6 minutes
Semi major axis: 42565 km
RCS: Unknown
Launch date: December 22, 1984
Source: United States (US)
Launch site: AIR FORCE EASTERN TEST RANGE (AFETR)
aabbcc
Your satellite tracking list
Your tracking list is empty




NASA's NSSDC Master Catalog

Two Line Element Set (TLE):
1 15453U 84129A   21268.50338858 -.00000266  00000-0  00000-0 0  9996
2 15453  14.2372 335.0521 0002291 148.0297 223.1579  0.98859856  8996
Source of the keplerian elements: McCants